Theta_e
319 323 326 326 326 325 325 324 325 323 322 321 319 318 316 315 313 312 311 310 309 309 308 309 308 308 308 309 309 310 309 308 308 307 306 305 305 304
314 320 322 324 324 323 323 322 324 323 322 319 318 317 315 314 313 311 310 309 309 308 308 308 307 307 307 308 307 307 307 307 306 306 304 304 303 303
313 318 322 320 324 323 322 320 320 320 321 318 317 314 312 310 308 308 308 307 307 307 307 307 307 306 306 305 305 305 305 304 304 303 303 302 300 294
314 315 318 320 318 318 320 322 320 320 319 315 313 312 310 308 305 305 305 306 305 304 306 306 306 305 304 304 303 303 303 302 302 301 296 292 290 290
315 317 317 319 318 318 319 318 318 317 314 310 309 307 307 306 304 303 303 304 304 303 304 303 303 303 302 302 301 300 296 293 291 290 290 290 290 290
315 315 316 316 316 316 316 315 315 312 308 308 308 307 305 304 303 303 303 302 302 301 301 300 299 298 296 294 292 290 290 289 289 289 290 290 291 291
312 311 312 312 312 312 312 313 310 307 307 307 307 306 304 304 304 303 301 301 300 298 295 292 290 290 289 289 289 289 289 289 290 291 291 291 291 291
308 309 310 310 311 311 311 307 307 307 307 306 306 305 304 303 302 301 299 298 295 291 290 290 288 288 289 289 289 290 291 291 291 291 290 290 290 291
307 307 307 307 307 307 306 306 306 306 304 304 303 303 302 300 298 296 295 293 290 289 289 289 289 290 290 290 291 291 291 291 291 291 291 290 290 290
305 305 306 306 305 305 305 304 302 303 303 303 301 298 294 293 292 290 289 289 289 289 289 289 290 291 290 291 291 291 291 291 291 290 290 290 289 289
302 303 303 304 303 303 303 301 301 300 297 292 291 290 290 289 289 289 289 289 289 289 290 290 290 290 290 290 291 291 290 290 290 290 290 289 289 289
301 301 302 301 300 300 300 296 290 290 290 289 289 289 289 288 288 288 288 288 289 290 290 290 290 290 290 290 290 290 290 290 290 290 290 289 289 289
299 300 299 298 296 292 290 289 289 289 289 288 289 288 288 288 288 288 289 290 290 290 290 290 290 290 290 290 290 290 290 289 289 289 290 290 290 290
297 296 293 290 288 288 288 288 288 288 288 288 288 288 288 288 288 289 290 290 290 289 290 290 289 289 289 290 289 289 289 289 289 290 289 290 290 290
289 288 288 288 288 287 287 287 287 287 288 288 287 288 288 288 289 289 289 289 289 289 289 289 289 289 289 289 289 289 289 289 289 289 289 289 289 289
287 287 287 287 287 287 286 286 287 287 287 287 287 288 288 289 289 289 289 289 289 289 289 289 289 288 288 288 288 289 288 288 288 288 288 288 288 288
286 286 286 287 287 287 286 286 287 287 286 287 287 288 288 288 288 288 288 288 288 288 288 288 288 288 288 288 288 288 287 287 287 287 287 288 288 288
287 287 287 287 287 287 287 287 287 287 287 287 287 287 287 287 287 287 287 287 287 287 287 286 286 286 286 286 286 286 286 286 286 286 286 286 287 287
287 287 287 287 287 287 287 287 287 287 287 287 287 287 287 287 287 287 287 287 287 286 286 286 286 285 285 285 285 285 285 285 285 285 284 285 285 287
287 288 287 287 287 287 287 287 287 287 287 287 287 286 287 287 287 287 286 286 286 286 285 285 285 284 284 284 283 285 284 284 283 284 284 285 285 286
287 288 288 287 287 287 287 287 287 287 287 287 287 286 287 287 287 287 286 286 285 285 286 285 283 283 284 284 285 286 285 284 284 284 285 285 286 287
288 288 288 287 287 287 287 287 287 287 287 287 287 287 287 287 287 287 286 286 285 285 285 284 283 283 283 284 285 286 286 286 285 284 284 284 284 284
290 289 289 288 288 287 287 287 287 287 287 287 287 287 286 286 286 286 286 286 286 285 284 284 283 283 284 284 284 285 286 286 286 286 286 284 284 283
Wind_Speed
30 28 29 28 27 26 24 24 26 17 19 21 21 23 19 18 15 15 13 11 11 11 10 8 8 10 12 13 16 18 19 19 18 18 18 17 14 14
25 24 26 27 27 24 23 24 24 27 19 20 22 23 19 17 19 17 16 14 12 11 11 11 12 12 12 14 16 18 19 20 19 17 15 12 14 15
21 22 23 25 25 21 19 24 21 22 24 23 23 21 19 17 19 14 12 11 11 11 10 10 11 12 12 13 14 15 16 17 16 13 13 14 15 14
17 18 19 24 20 21 18 21 21 21 23 24 22 20 19 17 15 12 11 11 10 11 11 10 10 11 12 13 13 14 14 14 14 14 14 14 13 12
17 16 19 20 21 20 22 21 21 23 22 21 20 20 18 16 14 13 11 9 9 8 8 8 9 10 11 12 12 13 12 13 14 14 14 12 10 7
17 17 20 20 20 21 19 21 22 21 20 19 18 17 17 16 15 13 12 10 10 9 8 8 9 11 12 11 12 13 13 13 12 11 8 6 6 6
19 20 21 22 22 24 24 23 20 20 19 18 18 17 16 16 15 13 13 11 10 9 8 9 9 10 10 9 9 8 8 7 6 6 6 7 7 8
20 20 21 22 23 23 23 21 19 18 17 17 15 14 14 14 14 13 14 12 9 8 8 7 7 8 7 6 5 5 6 6 7 8 9 9 9 10
19 18 19 19 20 19 19 19 19 17 16 14 13 13 14 13 12 13 13 12 10 9 7 7 7 6 6 5 5 6 7 8 9 10 11 11 12 12
18 18 18 16 15 15 14 15 16 16 16 15 14 12 11 12 11 11 12 12 9 9 8 7 7 6 7 7 7 7 8 8 9 10 11 12 11 11
15 15 14 14 16 15 14 14 15 16 15 14 14 13 11 12 11 10 10 11 9 8 8 7 7 7 8 9 10 9 7 8 8 8 9 9 9 11
14 14 15 15 15 14 14 14 15 14 13 12 14 10 11 11 11 9 8 8 7 7 9 7 5 5 5 7 7 6 7 10 11 12 13 13 15 17
14 14 14 13 13 13 14 14 13 13 13 12 11 10 10 10 9 9 9 8 8 8 8 8 7 7 8 8 9 10 10 10 10 11 13 15 16 17
12 12 13 12 13 14 13 13 14 13 14 13 12 12 11 10 9 9 9 8 9 10 11 10 11 11 11 10 9 8 7 10 11 13 14 16 18 17
12 13 13 13 12 13 13 12 13 13 14 14 13 12 10 10 10 9 9 9 10 11 12 13 12 12 13 12 12 9 9 8 12 11 11 14 17 18
14 14 14 14 13 13 13 14 14 14 13 13 13 12 11 11 10 10 9 9 10 11 13 13 13 13 13 14 15 12 10 9 11 13 15 14 15 14
13 14 15 15 15 14 14 15 14 15 16 15 14 11 11 11 10 10 9 9 10 11 11 12 13 14 15 15 16 13 12 11 11 13 15 15 14 15
15 15 15 15 15 15 15 15 15 16 16 15 14 12 12 11 11 11 10 11 11 10 10 11 13 14 16 14 13 10 10 11 12 13 13 19 19 16
19 17 16 16 15 16 16 16 16 15 15 16 15 14 13 13 13 12 12 11 10 10 10 10 11 12 14 17 15 13 12 9 13 15 17 18 23 18
22 17 17 17 17 17 17 17 16 17 18 17 17 16 15 15 15 14 13 12 12 12 13 11 10 10 13 15 18 15 13 15 16 21 21 20 21 21
23 21 18 18 18 17 17 18 18 18 18 19 18 18 17 18 17 16 15 15 15 16 15 12 10 14 15 17 20 17 15 16 17 20 20 22 22 22
24 23 21 19 19 19 19 19 20 20 21 20 19 19 19 19 19 18 18 18 18 17 17 13 13 15 17 18 21 21 19 17 16 18 18 17 20 22
26 24 22 21 20 21 21 22 23 23 23 21 21 20 20 21 20 21 20 20 20 19 18 17 16 18 18 19 21 23 21 19 19 19 16 13 17 20
Wind_Direction
261 256 258 262 263 264 262 258 254 239 248 249 266 277 277 278 277 284 276 268 247 240 247 242 255 252 246 250 252 263 273 285 288 288 287 292 291 294
260 256 255 256 256 254 252 265 250 248 246 256 270 268 267 265 271 276 269 262 247 243 240 234 239 251 252 255 260 265 272 275 278 282 282 286 289 295
261 254 253 256 245 248 252 253 250 253 260 259 258 255 260 258 272 273 249 242 242 246 246 239 238 249 252 263 266 266 268 273 276 277 283 285 285 285
259 257 250 249 263 246 254 237 257 253 257 258 251 247 248 252 257 258 238 235 244 253 258 241 241 243 252 259 266 271 273 274 277 280 281 282 283 282
261 251 254 251 251 258 248 249 261 267 260 252 242 241 241 244 241 241 241 231 237 240 247 248 251 255 257 261 268 271 274 277 277 278 279 281 280 273
250 248 251 252 255 249 246 254 268 262 252 247 242 238 234 232 229 235 226 224 228 237 243 250 254 256 259 263 266 268 272 275 276 276 275 269 265 266
252 252 252 253 256 260 258 257 253 250 245 242 236 230 225 225 229 227 226 226 235 241 249 254 253 256 262 262 263 264 265 261 260 262 263 265 267 268
257 253 252 252 253 254 256 253 248 240 236 235 231 229 223 223 227 228 230 229 237 248 251 248 245 247 242 236 229 233 243 251 258 261 264 267 269 274
253 252 250 251 254 254 246 242 234 230 229 229 235 231 230 233 225 230 235 238 240 239 240 245 226 229 226 225 232 248 259 265 265 265 267 266 269 275
253 250 248 243 243 236 231 230 230 231 234 241 237 236 235 233 232 227 231 234 229 231 232 225 222 236 252 258 261 263 268 270 267 267 268 270 271 269
254 249 244 233 230 228 225 226 230 232 231 232 231 227 231 235 232 227 225 226 224 221 226 233 239 242 257 270 272 277 276 275 272 270 268 261 261 271
237 235 233 224 228 225 225 227 233 234 234 232 230 228 229 230 227 218 215 219 219 229 242 242 236 252 273 261 256 250 268 275 275 274 273 272 273 279
231 232 232 228 233 234 232 231 231 231 229 223 219 217 215 216 208 207 211 220 232 236 247 263 269 262 257 264 275 275 275 273 274 277 280 282 282 283
232 233 237 235 233 236 236 233 229 225 221 218 216 212 210 210 209 212 219 229 245 258 265 266 272 272 270 272 268 265 266 272 272 273 276 277 280 282
238 237 238 243 239 234 237 233 229 220 219 217 214 212 207 207 214 222 234 240 249 260 269 274 270 270 276 280 280 279 277 266 270 264 263 274 279 283
247 247 245 243 241 235 230 227 226 222 221 219 219 214 211 214 224 234 244 254 263 269 267 269 271 271 272 277 280 289 291 283 277 280 279 283 289 290
245 244 241 240 238 234 231 227 223 222 220 220 224 222 221 227 235 244 255 266 270 267 266 269 270 273 277 278 281 288 283 277 272 278 284 282 278 291
244 245 244 241 238 237 233 231 229 228 226 227 230 228 228 233 241 253 261 270 276 278 276 274 275 277 281 286 289 286 277 278 270 273 281 287 286 290
247 242 243 243 244 242 239 236 234 232 230 233 236 235 233 235 243 253 262 269 277 283 289 287 283 282 285 291 294 292 287 280 285 284 284 286 290 296
248 249 248 248 247 245 241 239 236 233 234 235 236 238 241 243 247 254 261 267 273 278 283 285 286 285 287 294 291 291 293 297 298 297 298 293 291 296
254 259 257 253 250 248 245 242 239 238 240 240 239 239 241 246 249 252 256 260 266 272 278 282 282 280 284 285 288 299 301 300 297 295 295 297 301 299
256 260 263 261 256 253 249 245 244 244 244 244 244 245 246 249 252 252 253 255 261 273 277 277 270 274 277 282 289 294 298 297 292 290 291 289 293 291
261 264 265 263 259 255 252 249 249 248 249 251 250 248 248 250 254 255 254 255 259 264 265 270 270 271 276 279 285 290 293 297 299 296 291 285 279 281